Location: El Recuerdo
(3.6589°N, 75.6172°W)
Time: 21:09:32
(UTC+00:00)

Meteor 1-5 Rocket - Pass Details

Date: 17 March 2026
Orbit: 787 x 914 km, 81.2° (Epoch: 11 April)

Event Time Altitude Azimuth Distance (km) Brightness Sun altitude
Rises 00:04:42 0° 213° (SSW) 3,540 7.9 -13.5°
Reaches altitude 10° 00:07:45 10° 228° (SW) 2,600 7.5 -14.3°
Maximum altitude 00:12:08 21° 276° (W) 1,908 7.1 -15.3°
Drops below altitude 10° 00:16:29 10° 323° (NW) 2,579 7.2 -16.4°
Sets 00:19:32 0° 339° (NNW) 3,504 7.7 -17.2°
